K7RHT Weather Reports


time (UTC)temp
F
wind
direction
speed
knots
gust
knots
rain 1hr
in
rain 24hr
in
rain mn
in
humidity
%
barometer
mb
20260507021551 60 40 0.9 5.2 0.00 0.08 0.08 85 1014.9
20260507020055 60 30 1.7 6.1 0.00 0.08 0.08 86 1015.3
20260507014552 62 53 1.7 7.0 0.00 0.08 0.08 82 1015.0
20260507013041 61 0 1.7 8.7 0.00 0.08 0.08 84 1014.8
20260507011548 61 29 0.9 4.3 0.00 0.08 0.08 85 1014.8
20260507010046 62 13 1.7 4.3 0.00 0.08 0.08 85 1014.3
20260507004544 63 53 2.6 6.1 0.00 0.08 0.08 81 1014.2
20260507003046 62 30 1.7 5.2 0.00 0.08 0.08 82 1014.0
20260507001545 61 0 0.9 7.0 0.00 0.08 0.08 83 1014.0
20260507000044 61 11 1.7 6.1 0.00 0.08 0.08 84 1014.0
20260506234552 62 13 2.6 7.0 0.00 0.08 0.08 83 1013.8
20260506233050 63 46 1.7 9.6 0.00 0.08 0.08 80 1013.5
20260506231553 62 22 3.5 9.6 0.00 0.08 0.08 81 1013.2
20260506230046 62 55 3.5 9.6 0.00 0.08 0.08 81 1013.5
20260506224549 62 31 3.5 10.4 0.00 0.08 0.08 81 1013.6
20260506223045 63 355 3.5 8.7 0.00 0.08 0.08 81 1013.3
20260506221545 64 30 0.9 8.7 0.00 0.08 0.08 81 1013.4
20260506220053 65 47 3.5 8.7 0.00 0.08 0.08 79 1013.3
20260506214547 66 22 4.3 10.4 0.00 0.08 0.08 78 1013.3
20260506213048 67 9 4.3 9.6 0.00 0.08 0.08 75 1013.3
20260506211542 69 40 4.3 11.3 0.00 0.08 0.08 73 1013.3
20260506210042 70 347 3.5 8.7 0.00 0.08 0.08 72 1013.5
20260506204550 69 15 5.2 11.3 0.00 0.08 0.08 73 1013.4
20260506203052 72 21 2.6 8.7 0.00 0.08 0.08 70 1013.4
20260506201547 71 76 2.6 8.7 0.00 0.08 0.08 73 1013.6
20260506200045 69 17 4.3 8.7 0.00 0.08 0.08 74 1013.6
20260506194543 68 13 3.5 9.6 0.00 0.08 0.08 76 1013.8
20260506193045 69 5 5.2 10.4 0.00 0.08 0.08 75 1013.8
20260506191543 68 360 4.3 10.4 0.00 0.08 0.08 78 1013.8
20260506190046 69 32 5.2 10.4 0.00 0.08 0.08 78 1014.0
20260506184548 71 12 5.2 10.4 0.00 0.08 0.08 75 1014.0
20260506183047 74 11 5.2 11.3 0.00 0.08 0.08 74 1013.8
20260506181543 75 5 2.6 7.0 0.00 0.08 0.08 74 1013.8
20260506180048 76 5 1.7 7.8 0.00 0.08 0.08 75 1013.8
20260506174544 76 31 1.7 6.1 0.00 0.08 0.08 75 1013.8
20260506173117 74 26 1.7 3.5 0.00 0.08 0.08 77 1014.1
20260506171544 71 12 1.7 4.3 0.00 0.08 0.08 83 1013.9
20260506170041 70 15 0.0 7.8 0.00 0.08 0.08 86 1014.0
20260506164553 69 55 0.0 5.2 0.00 0.08 0.08 84 1013.6
20260506163047 69 78 0.9 5.2 0.00 0.08 0.08 84 1013.4
20260506161544 68 76 0.9 6.1 0.00 0.08 0.08 86 1013.3
20260506160045 69 33 3.5 9.6 0.02 0.08 0.08 85 1013.3
20260506154546 69 18 3.5 11.3 0.03 0.08 0.08 87 1013.3
20260506153048 67 55 3.5 9.6 0.03 0.08 0.08 90 1013.2
20260506151548 66 352 4.3 10.4 0.03 0.08 0.08 93 1013.1
20260506150046 68 13 7.8 20.0 0.01 0.06 0.06 91 1013.0
20260506144544 71 0 0.0 1.7 0.01 0.05 0.05 94 1012.8
20260506143045 71 69 0.0 2.6 0.02 0.05 0.05 95 1012.7
20260506141550 71 0 0.0 1.7 0.03 0.05 0.05 94 1012.4
20260506140046 71 0 0.0 0.9 0.03 0.05 0.05 94 1012.3
20260506134545 71 0 0.0 1.7 0.03 0.04 0.04 94 1012.1
20260506133040 71 0 0.9 7.8 0.02 0.03 0.03 94 1011.5
20260506131552 71 148 2.6 6.1 0.01 0.02 0.02 94 1010.7
20260506130100 71 142 4.3 8.7 0.01 0.02 0.02 94 1010.6
20260506124553 71 182 0.9 3.5 0.00 0.01 0.01 94 1010.5
20260506123045 71 162 1.7 6.1 0.00 0.01 0.01 94 1010.3
20260506121545 71 169 3.5 6.1 0.00 0.01 0.01 94 1010.2
20260506120046 71 157 4.3 9.6 0.01 0.01 0.01 93 1010.2
20260506114545 71 148 4.3 7.0 0.01 0.01 0.01 94 1010.2
20260506113052 71 156 2.6 6.1 0.01 0.01 0.01 93 1010.2
20260506111545 71 173 2.6 6.1 0.01 0.01 0.01 93 1010.4
20260506110056 71 0 2.6 7.0 0.00 0.00 0.00 93 1010.6
20260506104551 71 156 0.9 3.5 0.00 0.00 0.00 93 1010.6
20260506103050 71 156 1.7 6.1 0.00 0.00 0.00 93 1010.6
20260506101556 71 161 3.5 6.1 0.00 0.00 0.00 93 1010.3
20260506100104 71 169 2.6 7.8 0.00 0.00 0.00 93 1010.3
20260506094543 72 176 3.5 7.8 0.00 0.00 0.00 93 1010.2
20260506093048 72 138 4.3 9.6 0.00 0.00 0.00 92 1010.2
20260506091545 72 156 4.3 10.4 0.00 0.00 0.00 92 1010.2
20260506090045 72 152 6.1 10.4 0.00 0.00 0.00 92 1010.1
20260506084605 72 180 7.8 14.8 0.00 0.00 0.00 92 1009.9
20260506083043 72 155 7.0 13.0 0.00 0.00 0.00 91 1009.8
20260506081553 72 169 7.8 14.8 0.00 0.00 0.00 90 1009.8
20260506073047 73 169 4.3 9.6 0.00 0.00 0.00 90 1009.9
20260506071541 73 150 7.0 12.2 0.00 0.00 0.00 90 1010.1
20260506061545 74 141 6.1 9.6 0.00 0.00 0.00 88 1010.4
20260506044637 73 157 4.3 6.1 0.00 0.00 0.00 84 1010.4
20260506043047 73 153 1.7 3.5 0.00 0.00 0.00 83 1010.5
20260506041558 74 127 1.7 2.6 0.00 0.00 0.00 83 1010.5
20260506040049 74 99 1.7 3.5 0.00 0.00 0.00 83 1010.3
20260506034620 74 122 1.7 2.6 0.00 0.00 0.00 83 1010.1
20260506033051 74 144 1.7 2.6 0.00 0.00 0.00 82 1009.9
20260506031544 74 144 1.7 3.5 0.00 0.00 0.00 81 1009.9
20260506030045 75 128 1.7 3.5 0.00 0.00 0.00 80 1009.6
20260506024547 75 128 1.7 4.3 0.00 0.00 0.00 80 1009.6
20260506023102 75 181 0.9 3.5 0.00 0.00 0.00 79 1009.3